Regional Weather Roundup
Issued by NWS

Home | Current Version | Previous Version | Text Only | Print | Product List | Glossary Off
Versions: 1 2 3 4 5 6 7 8 9 10 11 12 13 14 15 16 17 18 19 20 21 22 23 24 25 26 27 28 29 30 31 32 33 34 35 36 37 38 39 40 41 42 43 44 45 46 47 48 49 50

000
ASUS43 KTOP 252059
RWRKS

WEATHER ROUNDUP FOR KANSAS
NATIONAL WEATHER SERVICE GOODLAND KS
400 PM CDT SAT MAR 25 2017

NOTE:  "FAIR" INDICATES FEW OR NO CLOUDS BELOW 12,000 FEET WITH NO
SIGNIFICANT WEATHER AND/OR OBSTRUCTIONS TO VISIBILITY.

KSZ001>006-013>018-027>032-041>047-252200-
NORTHWEST KANSAS

CITY           SKY/WX    TMP DP  RH WIND       PRES   REMARKS
GOODLAND       SUNNY     59  29  31 W3        29.92F
HAYS             N/A     48  39  71 NE10      29.94F
HILL CITY      PTSUNNY   54  42  64 VRB7      29.93F
RUSSELL        CLOUDY    49  39  68 N12       29.92F
$$

KSZ061>065-074>080-084>089-252200-
SOUTHWEST KANSAS

CITY           SKY/WX    TMP DP  RH WIND       PRES   REMARKS
DODGE CITY     SUNNY     65  38  36 N10G21    29.90F
ELKHART          N/A     64  28  25 NW1         N/A
GARDEN CITY    SUNNY     63  30  28 N8G17     29.92F
GREAT BEND     CLOUDY    48  40  73 N14       29.94F
LIBERAL          N/A     64  27  24 N9        29.94F
$$

KSZ066>073-081>083-090>101-252200-
SOUTHEAST KANSAS

CITY           SKY/WX    TMP DP  RH WIND       PRES   REMARKS
CHANUTE        CLOUDY    48  45  89 W14       29.87F
COFFEYVILLE    CLOUDY    49  43  80 W15       29.90S
HUTCHINSON     CLOUDY    46  40  79 N13       29.92F
MEDICINE LODGE   N/A     56  41  57 N7        29.92F
NEWTON         CLOUDY    42  40  92 NW21      29.92F
PARSONS        CLOUDY    49  44  83 W10       29.90S
WICHITA INTL   CLOUDY    46  42  86 NW15G22   29.92F
WICHITA JABRA  CLOUDY    46  41  82 NW15      29.91F
WICHITA MCCONL CLOUDY    45  39  81 N14       29.91F
WINFIELD       CLOUDY    47  40  76 NW16      29.93F
$$

KSZ007>012-019>026-033>040-048>060-102>105-252200-
NORTHEAST KANSAS

CITY           SKY/WX    TMP DP  RH WIND       PRES   REMARKS
CONCORDIA      CLOUDY    41  39  93 NW13      29.94F
EMPORIA        CLOUDY    46  45  96 NW14      29.87S
LAWRENCE       CLOUDY    51  49  92 NW15      29.85R
MANHATTAN      CLOUDY    46  42  86 NW9       29.91S
OLATHE IND     CLOUDY    53  51  93 NW10      29.82S
OLATHE EXE     CLOUDY    55  52  89 N13       29.81S
SALINA         CLOUDY    45  40  82 NW17      29.94F
TOPEKA BILLARD LGT RAIN  48  46  93 N10       29.86S
TOPEKA FORBES  CLOUDY    50  46  86 NW16      29.86S
$$




USA.gov is the U.S. government's official web portal to all federal, state and local government web resources and services.